Sheringham Point, British Columbia

6:40 AM PDT on April 23, 2017 (GMT -0700)
Sheringham Point

Weather History for CWSP - January, 2014

Change the Weather History Date:

Monday, January 13, 2014

  Actual Average Record
Temperature  
Mean Temperature 44 °F -  
Max Temperature 48 °F - - ()
Min Temperature 41 °F - - ()
Degree Days  
Heating Degree Days 20    
Moisture  
Dew Point 47 °F    
Average Humidity 95    
Maximum Humidity 100    
Minimum Humidity 89    
Precipitation  
Precipitation 0.31 in - - ()
Sea Level Pressure  
Sea Level Pressure 30.42 in    
Wind  
Wind Speed 23 mph ()    
Max Wind Speed 34 mph    
Max Gust Speed 43 mph    
T = Trace of Precipitation, MM = Missing Value Source: Averaged Metar Reports

Daily Weather History Graph

Daily Weather History Graph

Search for Another Location

Airport or City:

Trip Planner

Search our weather history database for the weather conditions in past years. The results will help you decide how hot, cold, wet, or windy it might be!

Date:

Astronomy

Jan. 13, 2014 Rise Set
Actual Time 8:03 AM PST 4:46 PM PST
Civil Twilight 7:27 AM PST 5:21 PM PST
Nautical Twilight 6:48 AM PST 6:00 PM PST
Astronomical Twilight 6:11 AM PST 6:38 PM PST
Moon 3:07 PM PST (1/13) 5:55 AM PST (1/13)
Length of Visible Light 9h 54m
Length of Day
8h 42m
Waxing Gibbous, 95% of the Moon is Illuminated
Jan 13
Waxing Gibbous
Jan 15
Full
Jan 23
Last Quarter
Jan 30
New
Feb 6
First Quarter

Hourly Weather History & Observations

Time (PST) Temp. Windchill Dew Point Humidity Pressure Visibility Wind Dir Wind Speed Gust Speed Precip Events Conditions
12:00 AM 46.9 °F - 46.0 °F 97% 30.23 in - West 31.1 mph - N/A   Unknown
1:00 AM 47.7 °F - 46.8 °F 97% 30.23 in - West 34.5 mph - 0.01 in   Unknown
2:00 AM 47.8 °F - 45.9 °F 93% 30.27 in - West 29.9 mph - N/A   Unknown
3:00 AM 47.5 °F - 45.1 °F 92% 30.28 in - West 29.9 mph - N/A   Unknown
4:00 AM 48 °F - 46 °F 89% 30.31 in - West 28.8 mph - -  
4:00 AM 47.7 °F - 45.7 °F 93% 30.31 in - West 28.8 mph - 0.02 in   Unknown
5:00 AM 47.5 °F - 45.9 °F 94% 30.30 in - West 29.9 mph - 0.01 in   Unknown
6:00 AM 48.4 °F - 46.8 °F 94% 30.30 in - West 34.5 mph 42.6 mph N/A   Unknown
7:00 AM 47.8 °F - 46.0 °F 93% 30.33 in - West 26.5 mph - N/A   Unknown
8:00 AM 48.4 °F - 46.2 °F 92% 30.33 in - West 31.1 mph - 0.01 in   Unknown
9:00 AM 48.4 °F - 46.0 °F 92% 30.38 in - West 28.8 mph - N/A   Unknown
10:00 AM 48 °F - 46 °F 92% 30.40 in - West 26.5 mph - -  
10:00 AM 47.8 °F - 46.4 °F 95% 30.40 in - West 26.5 mph - 0.01 in   Unknown
11:00 AM 48.6 °F - 46.4 °F 92% 30.42 in - West 27.6 mph - N/A   Unknown
12:00 PM 48.4 °F - 46.6 °F 93% 30.44 in - West 25.3 mph - 0.02 in   Unknown
1:00 PM 45.5 °F 37.1 °F 46.4 °F 100% 30.45 in - West 23.0 mph - 0.09 in   Unknown
2:00 PM 47.5 °F - 46.8 °F 97% 30.46 in - West 21.9 mph - 0.07 in   Unknown
3:00 PM 45.5 °F 37.6 °F 46.8 °F 100% 30.48 in - West 20.7 mph - 0.09 in   Unknown
4:00 PM 47 °F - 47 °F 98% 30.51 in - West 18.4 mph - -  
4:00 PM 47.1 °F - 46.6 °F 98% 30.51 in - West 18.4 mph - 0.02 in   Unknown
5:00 PM 46.8 °F - 46.2 °F 98% 30.54 in - WNW 10.4 mph - 0.05 in   Unknown
6:00 PM 47.7 °F - 45.5 °F 92% 30.54 in - WNW 9.2 mph - 0.08 in   Unknown
7:00 PM 48.0 °F - 47.7 °F 99% 30.55 in - WNW 10.4 mph - 0.05 in   Unknown
8:00 PM 46.9 °F - 46.4 °F 98% 30.56 in - West 16.1 mph - 0.04 in   Unknown
9:00 PM 48.0 °F - 47.7 °F 99% 30.57 in - WNW 16.1 mph - 0.06 in   Unknown
10:00 PM 48 °F - 48 °F 98% 30.57 in - WNW 16.1 mph - -  
10:00 PM 48.0 °F - 47.7 °F 99% 30.57 in - WNW 16.1 mph - 0.03 in   Unknown
11:00 PM 48.7 °F - 48.0 °F 97% 30.59 in - WNW 15.0 mph - 0.01 in   Unknown